Year,Month,Day,Hour,Minute,Value (Times are PST for temperature in C)
2007,08,29,00,00,13.90
2007,08,29,00,01,13.90
2007,08,29,00,02,13.90
2007,08,29,00,03,13.90
2007,08,29,00,04,13.90
2007,08,29,00,05,13.80
2007,08,29,00,06,13.80
2007,08,29,00,07,13.80
2007,08,29,00,08,13.80
2007,08,29,00,09,13.80
2007,08,29,00,10,13.80
2007,08,29,00,11,13.70
2007,08,29,00,12,13.70
2007,08,29,00,13,13.70
2007,08,29,00,14,13.70
2007,08,29,00,15,13.70
2007,08,29,00,16,13.70
2007,08,29,00,17,13.70
2007,08,29,00,18,13.70
2007,08,29,00,19,13.70
2007,08,29,00,20,13.70
2007,08,29,00,21,13.70
2007,08,29,00,22,13.70
2007,08,29,00,23,13.70
2007,08,29,00,24,13.70
2007,08,29,00,25,13.70
2007,08,29,00,26,13.70
2007,08,29,00,27,13.60
2007,08,29,00,28,13.60
2007,08,29,00,29,13.60
2007,08,29,00,30,13.60
2007,08,29,00,31,13.60
2007,08,29,00,32,13.60
2007,08,29,00,33,13.60
2007,08,29,00,34,13.50
2007,08,29,00,35,13.50
2007,08,29,00,36,13.50
2007,08,29,00,37,13.50
2007,08,29,00,38,13.50
2007,08,29,00,39,13.50
2007,08,29,00,40,13.50
2007,08,29,00,41,13.50
2007,08,29,00,42,13.50
2007,08,29,00,43,13.50
2007,08,29,00,44,13.50
2007,08,29,00,45,13.50
2007,08,29,00,46,13.50
2007,08,29,00,47,13.50
2007,08,29,00,48,13.50
2007,08,29,00,49,13.50
2007,08,29,00,50,13.50
2007,08,29,00,51,13.50
2007,08,29,00,52,13.50
2007,08,29,00,53,13.40
2007,08,29,00,54,13.40
2007,08,29,00,55,13.40
2007,08,29,00,56,13.40
2007,08,29,00,57,13.40
2007,08,29,00,58,13.40
2007,08,29,00,59,13.40
2007,08,29,01,00,13.40
2007,08,29,01,01,13.40
2007,08,29,01,02,13.40
2007,08,29,01,03,13.40
2007,08,29,01,04,13.40
2007,08,29,01,05,13.40
2007,08,29,01,06,13.40
2007,08,29,01,07,13.40
2007,08,29,01,08,13.40
2007,08,29,01,09,13.40
2007,08,29,01,10,13.40
2007,08,29,01,11,13.40
2007,08,29,01,12,13.40
2007,08,29,01,13,13.30
2007,08,29,01,14,13.30
2007,08,29,01,15,13.30
2007,08,29,01,16,13.30
2007,08,29,01,17,13.30
2007,08,29,01,18,13.30
2007,08,29,01,19,13.30
2007,08,29,01,20,13.30
2007,08,29,01,21,13.30
2007,08,29,01,22,13.30
2007,08,29,01,23,13.30
2007,08,29,01,24,13.30
2007,08,29,01,25,13.30
2007,08,29,01,26,13.30
2007,08,29,01,27,13.30
2007,08,29,01,28,13.30
2007,08,29,01,29,13.30
2007,08,29,01,30,13.30
2007,08,29,01,31,13.30
2007,08,29,01,32,13.30
2007,08,29,01,33,13.30
2007,08,29,01,34,13.30
2007,08,29,01,35,13.30
2007,08,29,01,36,13.30
2007,08,29,01,37,13.30
2007,08,29,01,38,13.30
2007,08,29,01,39,13.30
2007,08,29,01,40,13.20
2007,08,29,01,41,13.20
2007,08,29,01,42,13.20
2007,08,29,01,43,13.20
2007,08,29,01,44,13.20
2007,08,29,01,45,13.20
2007,08,29,01,46,13.20
2007,08,29,01,47,13.20
2007,08,29,01,48,13.20
2007,08,29,01,49,13.20
2007,08,29,01,50,13.20
2007,08,29,01,51,13.10
2007,08,29,01,52,13.10
2007,08,29,01,53,13.10
2007,08,29,01,54,13.10
2007,08,29,01,55,13.10
2007,08,29,01,56,13.10
2007,08,29,01,57,13.10
2007,08,29,01,58,13.10
2007,08,29,01,59,13.10
2007,08,29,02,00,13.10
2007,08,29,02,01,13.00
2007,08,29,02,02,13.00
2007,08,29,02,03,13.00
2007,08,29,02,04,13.00
2007,08,29,02,05,13.00
2007,08,29,02,06,13.00
2007,08,29,02,07,13.00
2007,08,29,02,08,13.00
2007,08,29,02,09,12.90
2007,08,29,02,10,12.90
2007,08,29,02,11,12.90
2007,08,29,02,12,12.90
2007,08,29,02,13,12.90
2007,08,29,02,14,12.90
2007,08,29,02,15,12.90
2007,08,29,02,16,12.90
2007,08,29,02,17,12.90
2007,08,29,02,18,12.90
2007,08,29,02,19,12.80
2007,08,29,02,20,12.80
2007,08,29,02,21,12.80
2007,08,29,02,22,12.80
2007,08,29,02,23,12.80
2007,08,29,02,24,12.80
2007,08,29,02,25,12.80
2007,08,29,02,26,12.80
2007,08,29,02,27,12.80
2007,08,29,02,28,12.80
2007,08,29,02,29,12.80
2007,08,29,02,30,12.80
2007,08,29,02,31,12.80
2007,08,29,02,32,12.80
2007,08,29,02,33,12.80
2007,08,29,02,34,12.80
2007,08,29,02,35,12.80
2007,08,29,02,36,12.80
2007,08,29,02,37,12.80
2007,08,29,02,38,12.80
2007,08,29,02,39,12.70
2007,08,29,02,40,12.70
2007,08,29,02,41,12.70
2007,08,29,02,42,12.70
2007,08,29,02,43,12.70
2007,08,29,02,44,12.70
2007,08,29,02,45,12.70
2007,08,29,02,46,12.60
2007,08,29,02,47,12.60
2007,08,29,02,48,12.60
2007,08,29,02,49,12.60
2007,08,29,02,50,12.60
2007,08,29,02,51,12.60
2007,08,29,02,52,12.60
2007,08,29,02,53,12.60
2007,08,29,02,54,12.60
2007,08,29,02,55,12.60
2007,08,29,02,56,12.50
2007,08,29,02,57,12.50
2007,08,29,02,58,12.50
2007,08,29,02,59,12.50
2007,08,29,03,00,12.50
2007,08,29,03,01,12.50
2007,08,29,03,02,12.50
2007,08,29,03,03,12.50
2007,08,29,03,04,12.40
2007,08,29,03,05,12.40
2007,08,29,03,06,12.40
2007,08,29,03,07,12.40
2007,08,29,03,08,12.40
2007,08,29,03,09,12.40
2007,08,29,03,10,12.40
2007,08,29,03,11,12.40
2007,08,29,03,12,12.40
2007,08,29,03,13,12.40
2007,08,29,03,14,12.40
2007,08,29,03,15,12.40
2007,08,29,03,16,12.40
2007,08,29,03,17,12.40
2007,08,29,03,18,12.40
2007,08,29,03,19,12.40
2007,08,29,03,20,12.40
2007,08,29,03,21,12.40
2007,08,29,03,22,12.40
2007,08,29,03,23,12.40
2007,08,29,03,24,12.40
2007,08,29,03,25,12.40
2007,08,29,03,26,12.40
2007,08,29,03,27,12.40
2007,08,29,03,28,12.40
2007,08,29,03,29,12.40
2007,08,29,03,30,12.30
2007,08,29,03,31,12.30
2007,08,29,03,32,12.30
2007,08,29,03,33,12.30
2007,08,29,03,34,12.40
2007,08,29,03,35,12.30
2007,08,29,03,36,12.30
2007,08,29,03,37,12.30
2007,08,29,03,38,12.30
2007,08,29,03,39,12.30
2007,08,29,03,40,12.30
2007,08,29,03,41,12.30
2007,08,29,03,42,12.30
2007,08,29,03,43,12.30
2007,08,29,03,44,12.30
2007,08,29,03,45,12.30
2007,08,29,03,46,12.30
2007,08,29,03,47,12.30
2007,08,29,03,48,12.30
2007,08,29,03,49,12.30
2007,08,29,03,50,12.30
2007,08,29,03,51,12.30
2007,08,29,03,52,12.30
2007,08,29,03,53,12.30
2007,08,29,03,54,12.30
2007,08,29,03,55,12.30
2007,08,29,03,56,12.20
2007,08,29,03,57,12.20
2007,08,29,03,58,12.20
2007,08,29,03,59,12.20
2007,08,29,04,00,12.20
2007,08,29,04,01,12.20
2007,08,29,04,02,12.20
2007,08,29,04,03,12.20
2007,08,29,04,04,12.20
2007,08,29,04,05,12.20
2007,08,29,04,06,12.10
2007,08,29,04,07,12.10
2007,08,29,04,08,12.10
2007,08,29,04,09,12.10
2007,08,29,04,10,12.10
2007,08,29,04,11,12.10
2007,08,29,04,12,12.10
2007,08,29,04,13,12.10
2007,08,29,04,14,12.10
2007,08,29,04,15,12.10
2007,08,29,04,16,12.10
2007,08,29,04,17,12.10
2007,08,29,04,18,12.10
2007,08,29,04,19,12.10
2007,08,29,04,20,12.10
2007,08,29,04,21,12.10
2007,08,29,04,22,12.10
2007,08,29,04,23,12.10
2007,08,29,04,24,12.10
2007,08,29,04,25,12.10
2007,08,29,04,26,12.10
2007,08,29,04,27,12.10
2007,08,29,04,28,12.00
2007,08,29,04,29,12.00
2007,08,29,04,30,12.00
2007,08,29,04,31,12.00
2007,08,29,04,32,12.00
2007,08,29,04,33,12.00
2007,08,29,04,34,12.00
2007,08,29,04,35,12.00
2007,08,29,04,36,12.00
2007,08,29,04,37,12.00
2007,08,29,04,38,12.00
2007,08,29,04,39,12.00
2007,08,29,04,40,12.10
2007,08,29,04,41,12.10
2007,08,29,04,42,12.10
2007,08,29,04,43,12.10
2007,08,29,04,44,12.10
2007,08,29,04,45,12.10
2007,08,29,04,46,12.10
2007,08,29,04,47,12.10
2007,08,29,04,48,12.10
2007,08,29,04,49,12.10
2007,08,29,04,50,12.10
2007,08,29,04,51,12.00
2007,08,29,04,52,12.00
2007,08,29,04,53,12.00
2007,08,29,04,54,12.00
2007,08,29,04,55,12.00
2007,08,29,04,56,12.00
2007,08,29,04,57,12.00
2007,08,29,04,58,12.00
2007,08,29,04,59,12.00
2007,08,29,05,00,12.00
2007,08,29,05,01,12.00
2007,08,29,05,02,12.00
2007,08,29,05,03,12.00
2007,08,29,05,04,12.00
2007,08,29,05,05,12.00
2007,08,29,05,06,12.00
2007,08,29,05,07,12.00
2007,08,29,05,08,12.00
2007,08,29,05,09,12.00
2007,08,29,05,10,12.00
2007,08,29,05,11,12.00
2007,08,29,05,12,12.00
2007,08,29,05,13,12.00
2007,08,29,05,14,12.00
2007,08,29,05,15,12.00
2007,08,29,05,16,12.00
2007,08,29,05,17,12.00
2007,08,29,05,18,12.00
2007,08,29,05,19,12.00
2007,08,29,05,20,12.00
2007,08,29,05,21,12.00
2007,08,29,05,22,12.00
2007,08,29,05,23,12.00
2007,08,29,05,24,12.00
2007,08,29,05,25,12.00
2007,08,29,05,26,12.00
2007,08,29,05,27,12.00
2007,08,29,05,28,12.00
2007,08,29,05,29,12.00
2007,08,29,05,30,12.00
2007,08,29,05,31,12.00
2007,08,29,05,32,12.00
2007,08,29,05,33,12.00
2007,08,29,05,34,12.00
2007,08,29,05,35,12.00
2007,08,29,05,36,12.00
2007,08,29,05,37,12.00
2007,08,29,05,38,12.00
2007,08,29,05,39,12.00
2007,08,29,05,40,12.10
2007,08,29,05,41,12.10
2007,08,29,05,42,12.10
2007,08,29,05,43,12.10
2007,08,29,05,44,12.10
2007,08,29,05,45,12.10
2007,08,29,05,46,12.10
2007,08,29,05,47,12.10
2007,08,29,05,48,12.10
2007,08,29,05,49,12.10
2007,08,29,05,50,12.10
2007,08,29,05,51,12.10
2007,08,29,05,52,12.10
2007,08,29,05,53,12.10
2007,08,29,05,54,12.10
2007,08,29,05,55,12.10
2007,08,29,05,56,12.10
2007,08,29,05,57,12.10
2007,08,29,05,58,12.10
2007,08,29,05,59,12.10
2007,08,29,06,00,12.10
2007,08,29,06,01,12.10
2007,08,29,06,02,12.10
2007,08,29,06,03,12.10
2007,08,29,06,04,12.10
2007,08,29,06,05,12.10
2007,08,29,06,06,12.10
2007,08,29,06,07,12.10
2007,08,29,06,08,12.10
2007,08,29,06,09,12.10
2007,08,29,06,10,12.10
2007,08,29,06,11,12.00
2007,08,29,06,12,12.00
2007,08,29,06,13,12.00
2007,08,29,06,14,12.00
2007,08,29,06,15,12.00
2007,08,29,06,16,12.00
2007,08,29,06,17,12.00
2007,08,29,06,18,12.00
2007,08,29,06,19,12.00
2007,08,29,06,20,12.00
2007,08,29,06,21,12.00
2007,08,29,06,22,12.00
2007,08,29,06,23,12.00
2007,08,29,06,24,12.00
2007,08,29,06,25,12.00
2007,08,29,06,26,11.90
2007,08,29,06,27,11.90
2007,08,29,06,28,11.90
2007,08,29,06,29,11.90
2007,08,29,06,30,11.90
2007,08,29,06,31,11.80
2007,08,29,06,32,11.80
2007,08,29,06,33,11.80
2007,08,29,06,34,11.80
2007,08,29,06,35,11.80
2007,08,29,06,36,11.80
2007,08,29,06,37,11.80
2007,08,29,06,38,11.80
2007,08,29,06,39,11.80
2007,08,29,06,40,11.80
2007,08,29,06,41,11.80
2007,08,29,06,42,11.80
2007,08,29,06,43,11.80
2007,08,29,06,44,11.80
2007,08,29,06,45,11.80
2007,08,29,06,46,11.80
2007,08,29,06,47,11.80
2007,08,29,06,48,11.80
2007,08,29,06,49,11.80
2007,08,29,06,50,11.80
2007,08,29,06,51,11.90
2007,08,29,06,52,11.90
2007,08,29,06,53,11.90
2007,08,29,06,54,11.90
2007,08,29,06,55,11.90
2007,08,29,06,56,12.00
2007,08,29,06,57,12.00
2007,08,29,06,58,12.10
2007,08,29,06,59,12.10
2007,08,29,07,00,12.20
2007,08,29,07,01,12.20
2007,08,29,07,02,12.20
2007,08,29,07,03,12.20
2007,08,29,07,04,12.30
2007,08,29,07,05,12.30
2007,08,29,07,06,12.30
2007,08,29,07,07,12.30
2007,08,29,07,08,12.30
2007,08,29,07,09,12.40
2007,08,29,07,10,12.40
2007,08,29,07,11,12.40
2007,08,29,07,12,12.50
2007,08,29,07,13,12.50
2007,08,29,07,14,12.60
2007,08,29,07,15,12.60
2007,08,29,07,16,12.60
2007,08,29,07,17,12.70
2007,08,29,07,18,12.70
2007,08,29,07,19,12.80
2007,08,29,07,20,12.80
2007,08,29,07,21,12.80
2007,08,29,07,22,12.90
2007,08,29,07,23,13.00
2007,08,29,07,24,13.00
2007,08,29,07,25,13.10
2007,08,29,07,26,13.10
2007,08,29,07,27,13.20
2007,08,29,07,28,13.20
2007,08,29,07,29,13.30
2007,08,29,07,30,13.30
2007,08,29,07,31,13.40
2007,08,29,07,32,13.40
2007,08,29,07,33,13.50
2007,08,29,07,34,13.50
2007,08,29,07,35,13.60
2007,08,29,07,36,13.70
2007,08,29,07,37,13.70
2007,08,29,07,38,13.80
2007,08,29,07,39,13.90
2007,08,29,07,40,14.00
2007,08,29,07,41,14.00
2007,08,29,07,42,14.20
2007,08,29,07,43,14.20
2007,08,29,07,44,14.40
2007,08,29,07,45,14.50
2007,08,29,07,46,14.50
2007,08,29,07,47,14.60
2007,08,29,07,48,14.70
2007,08,29,07,49,14.80
2007,08,29,07,50,14.80
2007,08,29,07,51,15.00
2007,08,29,07,52,15.10
2007,08,29,07,53,15.20
2007,08,29,07,54,15.30
2007,08,29,07,55,15.40
2007,08,29,07,56,15.50
2007,08,29,07,57,15.60
2007,08,29,07,58,15.70
2007,08,29,07,59,15.80
2007,08,29,08,00,15.90
2007,08,29,08,01,16.00
2007,08,29,08,02,16.10
2007,08,29,08,03,16.20
2007,08,29,08,04,16.30
2007,08,29,08,05,16.40
2007,08,29,08,06,16.40
2007,08,29,08,07,16.50
2007,08,29,08,08,16.70
2007,08,29,08,09,16.70
2007,08,29,08,10,16.80
2007,08,29,08,11,16.90
2007,08,29,08,12,17.00
2007,08,29,08,13,17.00
2007,08,29,08,14,17.10
2007,08,29,08,15,17.10
2007,08,29,08,16,17.20
2007,08,29,08,17,17.20
2007,08,29,08,18,17.30
2007,08,29,08,19,17.30
2007,08,29,08,20,17.30
2007,08,29,08,21,17.40
2007,08,29,08,22,17.40
2007,08,29,08,23,17.50
2007,08,29,08,24,17.50
2007,08,29,08,25,17.60
2007,08,29,08,26,17.60
2007,08,29,08,27,17.70
2007,08,29,08,28,17.80
2007,08,29,08,29,17.90
2007,08,29,08,30,18.00
2007,08,29,08,31,18.10
2007,08,29,08,32,18.20
2007,08,29,08,33,18.20
2007,08,29,08,34,18.20
2007,08,29,08,35,18.30
2007,08,29,08,36,18.30
2007,08,29,08,37,18.30
2007,08,29,08,38,18.40
2007,08,29,08,39,18.50
2007,08,29,08,40,18.50
2007,08,29,08,41,18.50
2007,08,29,08,42,18.60
2007,08,29,08,43,18.70
2007,08,29,08,44,18.70
2007,08,29,08,45,18.80
2007,08,29,08,46,18.80
2007,08,29,08,47,18.90
2007,08,29,08,48,18.90
2007,08,29,08,49,18.90
2007,08,29,08,50,18.90
2007,08,29,08,51,18.90
2007,08,29,08,52,19.10
2007,08,29,08,53,19.10
2007,08,29,08,54,19.10
2007,08,29,08,55,19.10
2007,08,29,08,56,19.10
2007,08,29,08,57,19.10
2007,08,29,08,58,19.10
2007,08,29,08,59,19.10
2007,08,29,09,00,19.20
2007,08,29,09,01,19.20
2007,08,29,09,02,19.20
2007,08,29,09,03,19.30
2007,08,29,09,04,19.30
2007,08,29,09,05,19.30
2007,08,29,09,06,19.40
2007,08,29,09,07,19.50
2007,08,29,09,08,19.60
2007,08,29,09,09,19.70
2007,08,29,09,10,19.80
2007,08,29,09,11,19.90
2007,08,29,09,12,20.00
2007,08,29,09,13,20.10
2007,08,29,09,14,20.20
2007,08,29,09,15,20.20
2007,08,29,09,16,20.30
2007,08,29,09,17,20.30
2007,08,29,09,18,20.40
2007,08,29,09,19,20.40
2007,08,29,09,20,20.40
2007,08,29,09,21,20.40
2007,08,29,09,22,20.30
2007,08,29,09,23,20.30
2007,08,29,09,24,20.40
2007,08,29,09,25,20.40
2007,08,29,09,26,20.50
2007,08,29,09,27,20.50
2007,08,29,09,28,20.60
2007,08,29,09,29,20.50
2007,08,29,09,30,20.50
2007,08,29,09,31,20.50
2007,08,29,09,32,20.60
2007,08,29,09,33,20.60
2007,08,29,09,34,20.60
2007,08,29,09,35,20.60
2007,08,29,09,36,20.70
2007,08,29,09,37,20.70
2007,08,29,09,38,20.80
2007,08,29,09,39,20.80
2007,08,29,09,40,20.70
2007,08,29,09,41,20.60
2007,08,29,09,42,20.60
2007,08,29,09,43,20.50
2007,08,29,09,44,20.50
2007,08,29,09,45,20.60
2007,08,29,09,46,20.60
2007,08,29,09,47,20.70
2007,08,29,09,48,20.80
2007,08,29,09,49,20.80
2007,08,29,09,50,20.90
2007,08,29,09,51,21.00
2007,08,29,09,52,21.10
2007,08,29,09,53,21.30
2007,08,29,09,54,21.30
2007,08,29,09,55,21.30
2007,08,29,09,56,21.30
2007,08,29,09,57,21.40
2007,08,29,09,58,21.40
2007,08,29,09,59,21.40
2007,08,29,10,00,21.30
2007,08,29,10,01,21.30
2007,08,29,10,02,21.30
2007,08,29,10,03,21.30
2007,08,29,10,04,21.30
2007,08,29,10,05,21.30
2007,08,29,10,06,21.30
2007,08,29,10,07,21.30
2007,08,29,10,08,21.30
2007,08,29,10,09,21.40
2007,08,29,10,10,21.50
2007,08,29,10,11,21.60
2007,08,29,10,12,21.60
2007,08,29,10,13,21.70
2007,08,29,10,14,21.70
2007,08,29,10,15,21.70
2007,08,29,10,16,21.70
2007,08,29,10,17,21.70
2007,08,29,10,18,21.80
2007,08,29,10,19,21.80
2007,08,29,10,20,21.80
2007,08,29,10,21,21.90
2007,08,29,10,22,21.90
2007,08,29,10,23,21.90
2007,08,29,10,24,21.80
2007,08,29,10,25,21.70
2007,08,29,10,26,21.60
2007,08,29,10,27,21.60
2007,08,29,10,28,21.60
2007,08,29,10,29,21.70
2007,08,29,10,30,21.80
2007,08,29,10,31,21.80
2007,08,29,10,32,22.00
2007,08,29,10,33,22.10
2007,08,29,10,34,22.10
2007,08,29,10,35,22.20
2007,08,29,10,36,22.30
2007,08,29,10,37,22.30
2007,08,29,10,38,22.40
2007,08,29,10,39,22.40
2007,08,29,10,40,22.50
2007,08,29,10,41,22.50
2007,08,29,10,42,22.40
2007,08,29,10,43,22.40
2007,08,29,10,44,22.30
2007,08,29,10,45,22.30
2007,08,29,10,46,22.30
2007,08,29,10,47,22.20
2007,08,29,10,48,22.30
2007,08,29,10,49,22.30
2007,08,29,10,50,22.50
2007,08,29,10,51,22.40
2007,08,29,10,52,22.30
2007,08,29,10,53,22.30
2007,08,29,10,54,22.30
2007,08,29,10,55,22.20
2007,08,29,10,56,22.20
2007,08,29,10,57,22.20
2007,08,29,10,58,22.30
2007,08,29,10,59,22.30
2007,08,29,11,00,22.30
2007,08,29,11,01,22.40
2007,08,29,11,02,22.50
2007,08,29,11,03,22.50
2007,08,29,11,04,22.60
2007,08,29,11,05,22.70
2007,08,29,11,06,22.90
2007,08,29,11,07,22.90
2007,08,29,11,08,23.00
2007,08,29,11,09,23.10
2007,08,29,11,10,23.20
2007,08,29,11,11,23.20
2007,08,29,11,12,23.10
2007,08,29,11,13,23.20
2007,08,29,11,14,23.30
2007,08,29,11,15,23.30
2007,08,29,11,16,23.30
2007,08,29,11,17,23.40
2007,08,29,11,18,23.60
2007,08,29,11,19,23.70
2007,08,29,11,20,23.70
2007,08,29,11,21,23.70
2007,08,29,11,22,23.70
2007,08,29,11,23,23.70
2007,08,29,11,24,23.60
2007,08,29,11,25,23.70
2007,08,29,11,26,23.70
2007,08,29,11,27,23.70
2007,08,29,11,28,23.70
2007,08,29,11,29,23.70
2007,08,29,11,30,23.70
2007,08,29,11,31,23.70
2007,08,29,11,32,23.70
2007,08,29,11,33,23.60
2007,08,29,11,34,23.60
2007,08,29,11,35,23.60
2007,08,29,11,36,23.60
2007,08,29,11,37,23.60
2007,08,29,11,38,23.60
2007,08,29,11,39,23.70
2007,08,29,11,40,23.70
2007,08,29,11,41,23.70
2007,08,29,11,42,23.60
2007,08,29,11,43,23.60
2007,08,29,11,44,23.40
2007,08,29,11,45,23.40
2007,08,29,11,46,23.50
2007,08,29,11,47,23.60
2007,08,29,11,48,23.70
2007,08,29,11,49,23.70
2007,08,29,11,50,23.70
2007,08,29,11,51,23.70
2007,08,29,11,52,23.70
2007,08,29,11,53,23.60
2007,08,29,11,54,23.60
2007,08,29,11,55,23.70
2007,08,29,11,56,23.70
2007,08,29,11,57,23.70
2007,08,29,11,58,23.80
2007,08,29,11,59,23.90
2007,08,29,12,00,24.00
2007,08,29,12,01,24.10
2007,08,29,12,02,24.10
2007,08,29,12,03,24.10
2007,08,29,12,04,24.10
2007,08,29,12,05,24.10
2007,08,29,12,06,24.10
2007,08,29,12,07,24.10
2007,08,29,12,08,24.20
2007,08,29,12,09,24.20
2007,08,29,12,10,24.10
2007,08,29,12,11,24.10
2007,08,29,12,12,24.10
2007,08,29,12,13,23.90
2007,08,29,12,14,24.00
2007,08,29,12,15,24.10
2007,08,29,12,16,24.20
2007,08,29,12,17,24.20
2007,08,29,12,18,24.20
2007,08,29,12,19,24.10
2007,08,29,12,20,24.10
2007,08,29,12,21,24.00
2007,08,29,12,22,23.90
2007,08,29,12,23,23.80
2007,08,29,12,24,23.70
2007,08,29,12,25,23.70
2007,08,29,12,26,23.70
2007,08,29,12,27,23.70
2007,08,29,12,28,23.70
2007,08,29,12,29,23.70
2007,08,29,12,30,23.70
2007,08,29,12,31,23.70
2007,08,29,12,32,23.80
2007,08,29,12,33,23.90
2007,08,29,12,34,24.10
2007,08,29,12,35,24.10
2007,08,29,12,36,24.10
2007,08,29,12,37,24.10
2007,08,29,12,38,24.10
2007,08,29,12,39,24.20
2007,08,29,12,40,24.20
2007,08,29,12,41,24.30
2007,08,29,12,42,24.30
2007,08,29,12,43,24.30
2007,08,29,12,44,24.40
2007,08,29,12,45,24.40
2007,08,29,12,46,24.50
2007,08,29,12,47,24.50
2007,08,29,12,48,24.70
2007,08,29,12,49,24.80
2007,08,29,12,50,24.90
2007,08,29,12,51,25.00
2007,08,29,12,52,25.00
2007,08,29,12,53,24.90
2007,08,29,12,54,24.90
2007,08,29,12,55,24.60
2007,08,29,12,56,24.40
2007,08,29,12,57,24.10
2007,08,29,12,58,24.00
2007,08,29,12,59,23.90
2007,08,29,13,00,23.80
2007,08,29,13,01,23.80
2007,08,29,13,02,23.80
2007,08,29,13,03,23.90
2007,08,29,13,04,24.10
2007,08,29,13,05,24.10
2007,08,29,13,06,24.20
2007,08,29,13,07,24.30
2007,08,29,13,08,24.30
2007,08,29,13,09,24.20
2007,08,29,13,10,24.00
2007,08,29,13,11,23.90
2007,08,29,13,12,23.90
2007,08,29,13,13,23.90
2007,08,29,13,14,23.90
2007,08,29,13,15,24.00
2007,08,29,13,16,24.10
2007,08,29,13,17,24.20
2007,08,29,13,18,24.30
2007,08,29,13,19,24.50
2007,08,29,13,20,24.50
2007,08,29,13,21,24.50
2007,08,29,13,22,24.30
2007,08,29,13,23,24.20
2007,08,29,13,24,24.30
2007,08,29,13,25,24.20
2007,08,29,13,26,24.10
2007,08,29,13,27,23.90
2007,08,29,13,28,23.80
2007,08,29,13,29,23.70
2007,08,29,13,30,23.70
2007,08,29,13,31,23.80
2007,08,29,13,32,23.90
2007,08,29,13,33,24.00
2007,08,29,13,34,24.10
2007,08,29,13,35,24.30
2007,08,29,13,36,24.50
2007,08,29,13,37,24.60
2007,08,29,13,38,24.80
2007,08,29,13,39,24.90
2007,08,29,13,40,25.00
2007,08,29,13,41,25.00
2007,08,29,13,42,24.90
2007,08,29,13,43,24.90
2007,08,29,13,44,24.90
2007,08,29,13,45,24.90
2007,08,29,13,46,25.00
2007,08,29,13,47,25.00
2007,08,29,13,48,24.90
2007,08,29,13,49,24.90
2007,08,29,13,50,24.70
2007,08,29,13,51,24.60
2007,08,29,13,52,24.60
2007,08,29,13,53,24.80
2007,08,29,13,54,24.70
2007,08,29,13,55,24.70
2007,08,29,13,56,24.70
2007,08,29,13,57,24.60
2007,08,29,13,58,24.50
2007,08,29,13,59,24.40
2007,08,29,14,00,24.30
2007,08,29,14,01,24.10
2007,08,29,14,02,24.00
2007,08,29,14,03,23.90
2007,08,29,14,04,23.90
2007,08,29,14,05,23.90
2007,08,29,14,06,24.10
2007,08,29,14,07,24.10
2007,08,29,14,08,24.30
2007,08,29,14,09,24.50
2007,08,29,14,10,24.50
2007,08,29,14,11,24.50
2007,08,29,14,12,24.60
2007,08,29,14,13,24.70
2007,08,29,14,14,24.70
2007,08,29,14,15,24.80
2007,08,29,14,16,24.90
2007,08,29,14,17,24.90
2007,08,29,14,18,25.00
2007,08,29,14,19,25.10
2007,08,29,14,20,25.30
2007,08,29,14,21,25.40
2007,08,29,14,22,25.60
2007,08,29,14,23,25.60
2007,08,29,14,24,25.60
2007,08,29,14,25,25.60
2007,08,29,14,26,25.40
2007,08,29,14,27,25.20
2007,08,29,14,28,24.90
2007,08,29,14,29,24.90
2007,08,29,14,30,24.80
2007,08,29,14,31,24.80
2007,08,29,14,32,24.80
2007,08,29,14,33,24.80
2007,08,29,14,34,24.90
2007,08,29,14,35,25.10
2007,08,29,14,36,25.00
2007,08,29,14,37,24.90
2007,08,29,14,38,24.90
2007,08,29,14,39,24.80
2007,08,29,14,40,24.80
2007,08,29,14,41,24.80
2007,08,29,14,42,24.90
2007,08,29,14,43,25.00
2007,08,29,14,44,25.10
2007,08,29,14,45,25.10
2007,08,29,14,46,25.10
2007,08,29,14,47,25.10
2007,08,29,14,48,25.10
2007,08,29,14,49,25.10
2007,08,29,14,50,25.10
2007,08,29,14,51,25.10
2007,08,29,14,52,25.00
2007,08,29,14,53,25.00
2007,08,29,14,54,25.10
2007,08,29,14,55,25.20
2007,08,29,14,56,25.10
2007,08,29,14,57,25.00
2007,08,29,14,58,25.10
2007,08,29,14,59,25.00
2007,08,29,15,00,25.00
2007,08,29,15,01,25.00
2007,08,29,15,02,25.00
2007,08,29,15,03,24.90
2007,08,29,15,04,24.90
2007,08,29,15,05,24.80
2007,08,29,15,06,24.80
2007,08,29,15,07,24.70
2007,08,29,15,08,24.80
2007,08,29,15,09,24.80
2007,08,29,15,10,24.80
2007,08,29,15,11,24.70
2007,08,29,15,12,24.60
2007,08,29,15,13,24.50
2007,08,29,15,14,24.50
2007,08,29,15,15,24.60
2007,08,29,15,16,24.70
2007,08,29,15,17,24.80
2007,08,29,15,18,24.80
2007,08,29,15,19,24.80
2007,08,29,15,20,24.90
2007,08,29,15,21,24.90
2007,08,29,15,22,24.90
2007,08,29,15,23,25.00
2007,08,29,15,24,24.90
2007,08,29,15,25,24.90
2007,08,29,15,26,24.80
2007,08,29,15,27,24.80
2007,08,29,15,28,24.90
2007,08,29,15,29,25.00
2007,08,29,15,30,25.10
2007,08,29,15,31,25.30
2007,08,29,15,32,25.40
2007,08,29,15,33,25.50
2007,08,29,15,34,25.60
2007,08,29,15,35,25.60
2007,08,29,15,36,25.50
2007,08,29,15,37,25.50
2007,08,29,15,38,25.60
2007,08,29,15,39,25.70
2007,08,29,15,40,25.70
2007,08,29,15,41,25.70
2007,08,29,15,42,25.80
2007,08,29,15,43,25.80
2007,08,29,15,44,25.90
2007,08,29,15,45,25.90
2007,08,29,15,46,25.90
2007,08,29,15,47,25.80
2007,08,29,15,48,25.80
2007,08,29,15,49,25.90
2007,08,29,15,50,25.90
2007,08,29,15,51,25.90
2007,08,29,15,52,25.90
2007,08,29,15,53,25.90
2007,08,29,15,54,26.00
2007,08,29,15,55,26.10
2007,08,29,15,56,26.10
2007,08,29,15,57,26.10
2007,08,29,15,58,26.10
2007,08,29,15,59,26.00
2007,08,29,16,00,26.00
2007,08,29,16,01,26.00
2007,08,29,16,02,26.00
2007,08,29,16,03,26.00
2007,08,29,16,04,26.00
2007,08,29,16,05,26.00
2007,08,29,16,06,26.10
2007,08,29,16,07,26.30
2007,08,29,16,08,26.30
2007,08,29,16,09,26.40
2007,08,29,16,10,26.40
2007,08,29,16,11,26.60
2007,08,29,16,12,26.60
2007,08,29,16,13,26.60
2007,08,29,16,14,26.70
2007,08,29,16,15,26.80
2007,08,29,16,16,26.80
2007,08,29,16,17,26.90
2007,08,29,16,18,27.10
2007,08,29,16,19,27.20
2007,08,29,16,20,27.20
2007,08,29,16,21,27.30
2007,08,29,16,22,27.30
2007,08,29,16,23,27.40
2007,08,29,16,24,27.60
2007,08,29,16,25,27.60
2007,08,29,16,26,27.60
2007,08,29,16,27,27.60
2007,08,29,16,28,27.40
2007,08,29,16,29,27.40
2007,08,29,16,30,27.40
2007,08,29,16,31,27.40
2007,08,29,16,32,27.30
2007,08,29,16,33,27.30
2007,08,29,16,34,27.30
2007,08,29,16,35,27.30
2007,08,29,16,36,27.20
2007,08,29,16,37,27.20
2007,08,29,16,38,27.20
2007,08,29,16,39,27.10
2007,08,29,16,40,27.00
2007,08,29,16,41,26.90
2007,08,29,16,42,26.60
2007,08,29,16,43,26.40
2007,08,29,16,44,26.20
2007,08,29,16,45,26.10
2007,08,29,16,46,25.90
2007,08,29,16,47,25.90
2007,08,29,16,48,25.70
2007,08,29,16,49,25.60
2007,08,29,16,50,25.60
2007,08,29,16,51,25.50
2007,08,29,16,52,25.50
2007,08,29,16,53,25.50
2007,08,29,16,54,25.40
2007,08,29,16,55,25.30
2007,08,29,16,56,25.30
2007,08,29,16,57,25.20
2007,08,29,16,58,25.20
2007,08,29,16,59,25.20
2007,08,29,17,00,25.10
2007,08,29,17,01,25.10
2007,08,29,17,02,25.20
2007,08,29,17,03,25.10
2007,08,29,17,04,25.10
2007,08,29,17,05,25.00
2007,08,29,17,06,25.00
2007,08,29,17,07,25.00
2007,08,29,17,08,25.00
2007,08,29,17,09,25.00
2007,08,29,17,10,25.00
2007,08,29,17,11,25.10
2007,08,29,17,12,25.10
2007,08,29,17,13,25.10
2007,08,29,17,14,25.10
2007,08,29,17,15,25.10
2007,08,29,17,16,25.20
2007,08,29,17,17,25.30
2007,08,29,17,18,25.40
2007,08,29,17,19,25.40